Location: Spring Creek
(38.2870°N, 100.2160°W)
Time: 02:46:47
(UTC+00:00)

USA 215 - Pass Details

Date: 08 May 2021
Orbit: 1100 x 1107 km, 123.0° (Epoch: 14 June)

Event Time Altitude Azimuth Distance (km) Brightness Sun altitude
Exits shadow 05:49:21 27° 71° (ENE) 1,979 4.6 -33.4°
Maximum altitude 05:51:54 36° 30° (NNE) 1,662 4.4 -33.5°
Drops below altitude 10° 05:57:45 10° 327° (NNW) 2,962 6.2 -33.8°
Sets 06:00:25 0° 319° (NW) 3,923 6.9 -33.9°
